Weather History for Belize / Phillip Goldston Intl. Airport, Belize

Change the Weather History Date:

Saturday, April 19, 2014

  Actual Average Record
Temperature  
Mean Temperature 80 °F -  
Max Temperature 86 °F 89 °F - ()
Min Temperature 75 °F 75 °F - ()
Cooling Degree Days 16    
Growing Degree Days 30 (Base 50)    
Moisture  
Dew Point 74 °F    
Average Humidity 82    
Maximum Humidity 94    
Minimum Humidity 59    
Precipitation  
Precipitation 0.24 in 0.11 in - ()
Sea Level Pressure  
Sea Level Pressure 29.99 in    
Wind  
Wind Speed 5 mph ()    
Max Wind Speed 10 mph    
Max Gust Speed -    
Visibility 6.7 miles    
Events Rain    
T = Trace of Precipitation, MM = Missing Value Source: Averaged Metar Reports

Daily Weather History Graph

Daily Weather History Graph

Search for Another Location

Airport:

Trip Planner

Search our weather history database for the weather conditions in past years. The results will help you decide how hot, cold, wet, or windy it might be!

Date:

Astronomy

Apr. 19, 2014 Rise Set
Actual Time 5:34 AM CST 6:10 PM CST
Civil Twilight 5:12 AM CST 6:32 PM CST
Nautical Twilight 4:46 AM CST 6:58 PM CST
Astronomical Twilight 4:19 AM CST 7:25 PM CST
Moon 10:33 PM CST (4/19) 9:11 AM CST (4/19)
Length of Visible Light 13h 20m
Length of Day
12h 36m
Waning Gibbous, 78% of the Moon is Illuminated
Apr 19
Waning Gibbous
Apr 22
Last Quarter
Apr 29
New
May 6
First Quarter
May 14
Full

Hourly Weather History & Observations

Time (CST) Temp. Heat Index Dew Point Humidity Pressure Visibility Wind Dir Wind Speed Gust Speed Precip Events Conditions
12:00 AM 81 °F - 75 °F 77% 29.98 in 12 mi East 9.2 mph - -   Mostly Cloudy
3:00 AM 77 °F - 74 °F 90% 29.94 in 12 mi Calm Calm - -   Scattered Clouds
5:00 AM 77.0 °F - 73.4 °F 89% 29.95 in 6.2 mi Calm Calm - N/A   Mostly Cloudy
6:00 AM 75 °F - 73 °F 92% 29.99 in 12 mi Calm Calm - - Rain Light Rain Showers
6:00 AM 75.2 °F - 73.4 °F 94% 29.98 in 6.2 mi Calm Calm - N/A   Mostly Cloudy
7:00 AM 77.0 °F - 73.4 °F 89% 30.00 in 6.2 mi Calm Calm - N/A   Mostly Cloudy
8:00 AM 80.6 °F 86.2 °F 75.2 °F 84% 30.01 in 6.2 mi Calm Calm - N/A   Mostly Cloudy
9:00 AM 80 °F - 75 °F 80% 30.02 in 3 mi SSE 5.8 mph - -   Mostly Cloudy
9:00 AM 80.6 °F 86.2 °F 75.2 °F 84% 30.01 in 3.1 mi SSE 5.8 mph - N/A   Mostly Cloudy
10:00 AM 77.0 °F - 75.2 °F 94% 30.02 in 3.7 mi Calm Calm - N/A   Mostly Cloudy
10:20 AM 77.0 °F - 75.2 °F 94% 30.02 in 1.9 mi NNE 6.9 mph - N/A Rain Rain Showers
10:35 AM 77.0 °F - 75.2 °F 94% 30.03 in 1.2 mi NNE 10.4 mph - N/A Rain Rain Showers
10:40 AM 77.0 °F - 75.2 °F 94% 30.03 in 0.9 mi NNE 10.4 mph - N/A Rain Heavy Rain Showers
11:00 AM 75.2 °F - 73.4 °F 94% 30.02 in 2.5 mi North 8.1 mph - N/A Rain Rain Showers
11:05 AM 75.2 °F - 73.4 °F 94% 30.01 in 5.0 mi NE 3.5 mph - N/A Rain Light Rain Showers
11:13 AM 75.2 °F - 73.4 °F 94% 30.01 in 6.2 mi NE 4.6 mph - N/A   Mostly Cloudy
12:00 PM 82 °F - 75 °F 73% 30.01 in 12 mi NE 9.2 mph - - Rain Light Rain Showers
12:00 PM 82.4 °F 89.5 °F 75.2 °F 79% 30.00 in 6.2 mi NE 9.2 mph - N/A   Mostly Cloudy
1:00 PM 84.2 °F 90.9 °F 73.4 °F 70% 29.98 in 6.2 mi ENE 9.2 mph - N/A   Scattered Clouds
2:00 PM 84.2 °F 90.9 °F 73.4 °F 70% 29.96 in 6.2 mi ENE 9.2 mph - N/A   Scattered Clouds
3:00 PM 85 °F - 73 °F 59% 29.95 in 12 mi East 10.4 mph - -   Partly Cloudy
3:00 PM 84.2 °F 90.9 °F 73.4 °F 70% 29.95 in 6.2 mi East 9.2 mph - N/A   Partly Cloudy
4:00 PM 86.0 °F 93.4 °F 73.4 °F 66% 29.95 in 6.2 mi East 9.2 mph - N/A   Partly Cloudy
5:00 PM 84.2 °F 92.3 °F 75.2 °F 74% 29.95 in 6.2 mi East 9.2 mph - N/A   Partly Cloudy
6:00 PM 83 °F - 75 °F 70% 29.97 in 12 mi ENE 9.2 mph - -   Partly Cloudy
6:00 PM 82.4 °F 89.5 °F 75.2 °F 79% 29.97 in 6.2 mi ENE 9.2 mph - N/A   Partly Cloudy
9:00 PM 80 °F - 74 °F 76% 30.00 in 12 mi ENE 5.8 mph - -   Clear